SB KEPS @ AMSAT $ORB07200.N 2Line Orbital Elements 07200.AMSAT
HR AMSAT ORBITAL ELEMENTS FOR AMATEUR SATELLITES IN NASA FORMAT FROM WA5QGD FORT WORTH,TX July 19, 2007 Send Subscribe/unsubscribe to KEPS at http://www.amsat.org/mailman/listinfo/keps BID: ORB07200.N
DECODE 2-LINE ELSETS WITH THE FOLLOWING KEY: 1 AAAAAU 00 0 0 BBBBB.BBBBBBBB .CCCCCCCC 00000-0 00000-0 0 DDDZ 2 AAAAA EEE.EEEE FFF.FFFF GGGGGGG HHH.HHHH III.IIII JJ.JJJJJJJJKKKKKZ KEY: A-CATALOGNUM B-EPOCHTIME C-DECAY D-ELSETNUM E-INCLINATION F-RAAN G-ECCENTRICITY H-ARGPERIGEE I-MNANOM J-MNMOTION K-ORBITNUM Z-CHECKSUM
TO ALL RADIO AMATEURS BT
AO-07 1 07530U 74089B 07200.70254576 -.00000028 00000-0 10000-3 0 9296 2 07530 101.5119 237.7516 0011796 191.4264 168.6536 12.53572443495196 AO-10 1 14129U 83058B 07199.14208184 -.00000156 00000-0 10000-3 0 04010 2 14129 026.3432 266.3562 6065357 039.8439 351.7403 02.05869777181203 UO-11 1 14781U 84021B 07199.90835636 .00000328 00000-0 51165-4 0 04251 2 14781 098.1876 223.2185 0010198 071.8058 288.4262 14.79568159254427 RS-15 1 23439U 94085A 07199.82314439 -.00000039 00000-0 10597-3 0 00738 2 23439 064.8200 315.7580 0158588 185.0451 174.8879 11.27551974517268 FO-29 1 24278U 96046B 07199.92957571 -.00000010 00000-0 26802-4 0 05595 2 24278 098.5531 155.3139 0351323 001.1930 358.9971 13.52931725539191 SO-33 1 25509U 98061B 07200.69864614 .00000326 00000-0 53652-4 0 9769 2 25509 031.4331 041.9209 0355335 351.5717 007.9054 14.28170479455907 AO-40 1 26609U 00072B 07198.59458785 -.00000287 00000-0 10000-3 0 09068 2 26609 005.9434 132.4290 7977631 342.0109 001.1921 01.25586988030829 VO-52 1 28650U 05017B 07200.66732873 -.00000094 00000-0 -52323-5 0 6807 2 28650 097.8309 270.6571 0027934 145.7468 214.5543 14.81337523119223 PO-63 1 29712U 07001D 07200.83788660 .00000598 00000-0 86320-4 0 5580 2 29712 097.9199 259.5428 0015018 028.7672 331.4346 14.79765972 28167 AO-16 1 20439U 90005D 07199.88799593 .00000018 00000-0 21738-4 0 00867 2 20439 098.1966 192.6974 0011918 090.3293 269.9256 14.31765550913080 LO-19 1 20442U 90005G 07199.92114729 .00000030 00000-0 26315-4 0 00138 2 20442 098.1799 202.0365 0012978 089.3072 270.9610 14.32005843913234 AO-27 1 22825U 93061C 07199.91209772 -.00000010 00000-0 12526-4 0 07351 2 22825 098.3319 168.4132 0008501 161.6665 198.4821 14.29213118720020 IO-26 1 22826U 93061D 07200.37394188 -.00000005 00000-0 14153-4 0 4316 2 22826 098.3254 169.9120 0008918 157.7552 202.4033 14.29459748720173 PO-28 1 22829U 93061G 07200.80394520 .00000076 00000-0 45406-4 0 7097 2 22829 098.3143 171.4851 0010330 131.4885 228.7184 14.30160986720477 GO-32 1 25397U 98043D 07200.85329401 .00000012 00000-0 23481-4 0 3530 2 25397 098.4126 246.6350 0002035 115.5497 244.5890 14.23128552468807 MO-46 1 26548U 00057D 07200.14461207 .00000137 00000-0 34524-4 0 8487 2 26548 064.5559 083.8006 0011421 193.7648 166.3167 14.83160377368279 NO-44 1 26931U 01043C 07199.78293439 .00000027 00000-0 43008-4 0 6377 2 26931 067.0530 066.1018 0007646 262.0481 097.9739 14.29490445302610 SO-50 1 27607U 02058C 07200.88580348 -.00000025 00000-0 18083-4 0 3626 2 27607 064.5598 345.7543 0058032 351.1409 008.8669 14.71273689245931 CO-55 1 27844U 03031E 07199.73034068 .00000030 00000-0 34335-4 0 760 2 27844 098.7184 207.5990 0010331 007.3320 352.7997 14.20521846209959 CO-57 1 27848U 03031J 07199.96628456 .00000066 00000-0 51396-4 0 359 2 27848 098.7168 207.0151 0010384 008.5685 351.5664 14.20340356209968 AO-51 1 28375U 04025K 07200.17151019 .00000007 00000-0 14757-4 0 8668 2 28375 098.1102 237.8390 0085048 085.1652 275.9243 14.40574457160316 CO-56 1 28941U 06005C 07200.80513034 .00022648 24596-5 22699-3 0 5033 2 28941 098.1276 265.5553 0222815 157.3200 203.7814 15.40953610 78451 HO-59 1 29484U 06041F 07200.85823475 .00036961 28252-5 24169-3 0 5146 2 29484 098.2816 255.6352 0201224 148.4431 212.8865 15.53296313 46142 NO-60 1 29661U 06055C 07150.05824307 .13324117 12618-4 10400-3 0 3000 2 29661 051.6186 176.5045 0007204 190.7749 188.7342 16.52052832 25544 NO-61 1 29664U 06055F 07200.67701975 .00024084 11445-4 73343-4 0 3090 2 29664 051.6290 280.9040 0011350 103.3225 256.9024 15.93772781 33331 CP4 1 31122U 07012F 07199.89060653 .00000595 00000-0 14251-3 0 00886 2 31122 098.0820 272.1417 0084276 286.9924 072.1968 14.55019077013465 CP3 1 31128U 07012M 07199.88568028 -.00000049 00000-0 00000-0 0 00834 2 31128 098.0814 271.6771 0101707 288.2758 070.7358 14.51847802013424 LIBERT 1 31129U 07012N 07200.77608219 .00000383 00000-0 10000-3 0 2301 2 31129 098.0806 272.5400 0101604 285.4775 073.5217 14.51940963 13538 NOAA-10 1 16969U 86073A 07200.47934252 .00000025 00000-0 28508-4 0 7341 2 16969 098.7439 217.6791 0013325 074.4049 285.8608 14.27329932 83839 NOAA-11 1 19531U 88089A 07200.30846383 .00000095 00000-0 72057-4 0 7364 2 19531 098.8124 289.0742 0010931 302.0666 057.9489 14.14847285970699 NOAA-12 1 21263U 91032A 07200.30905952 .00000205 00000-0 10549-3 0 2320 2 21263 098.7521 197.4971 0013089 019.1692 341.0004 14.25547456840822 MET-3/5 1 21655U 91056A 07199.92770716 .00000051 00000-0 10000-3 0 02976 2 21655 082.5524 340.5140 0014202 124.9558 235.2900 13.17011752765587 MET-2/21 1 22782U 93055A 07200.91081629 .00000039 00000-0 21557-4 0 8814 2 22782 082.5473 015.9496 0023430 141.2972 218.9874 13.83619263701047 OKEAN-4 1 23317U 94066A 07200.78014315 .00000216 00000-0 23817-4 0 3201 2 23317 082.5385 266.1271 0023247 141.4995 218.7884 14.82519973688880 NOAA-14 1 23455U 94089A 07200.42344512 -.00000164 00000-0 -62899-4 0 7150 2 23455 098.9872 266.7790 0009509 014.6473 345.4967 14.13722394647190 SICH-1 1 23657U 95046A 07199.83013476 .00000201 00000-0 22406-4 0 1190 2 23657 082.5258 047.9583 0024988 136.0822 224.2363 14.81501371640715 NOAA-15 1 25338U 98030A 07200.33821654 -.00000077 00000-0 -14709-4 0 736 2 25338 098.5302 196.1152 0009589 299.2856 060.7362 14.24654702477262 RESURS 1 25394U 98043A 07199.75422736 .00000005 00000-0 20288-4 0 6906 2 25394 098.4388 253.0325 0002385 083.5966 276.5485 14.24140953468840 FENGYUN1 1 25730U 99025A 07200.48047503 .00000130 00000-0 10153-3 0 1755 2 25730 098.6876 183.1232 0021706 039.2509 321.0223 14.07557222422014 OKEAN-0 1 25860U 99039A 07199.53788790 .00000053 00000-0 15408-4 0 01097 2 25860 097.7310 200.3216 0000705 042.1528 317.9728 14.73464032430118 NOAA-16 1 26536U 00055A 07200.20890665 .00000330 00000-0 20356-3 0 4908 2 26536 099.1173 177.7092 0011544 084.6405 275.6103 14.12441316351627 NOAA-17 1 27453U 02032A 07200.42129156 .00000234 00000-0 12087-3 0 5027 2 27453 098.5777 268.9492 0011581 006.0127 354.1187 14.23895672263308 NOAA-18 1 28654U 05018A 07200.44524172 .00000130 00000-0 96164-4 0 385 2 28654 098.8284 141.1889 0014284 173.4717 186.6625 14.11080673111409 HUBBLE 1 20580U 90037B 07200.53856060 .00000301 00000-0 10506-4 0 9198 2 20580 028.4682 339.1640 0003412 086.0605 274.0365 15.00261546744820 UARS 1 21701U 91063B 07200.94807134 .00002531 00000-0 48537-4 0 1203 2 21701 056.9733 171.7286 0085700 254.3865 104.7667 15.48518229870822 PO-34 1 25520U 98064B 07199.42440367 .00000533 00000-0 16506-4 0 7819 2 25520 028.4605 259.6790 0005450 233.8915 126.1172 15.17023696482277 ISS 1 25544U 98067A 07200.96250000 .00014708 00000-0 83696-4 0 6141 2 25544 051.6358 294.4283 0009040 082.7700 266.4584 15.79212521495940 OO-38 1 26063U 00004C 07200.64283830 -.00000023 00000-0 12300-4 0 9631 2 26063 100.2273 209.2599 0037434 068.5949 291.9213 14.35810881391708 UWE-1 1 28892U 05043C 07199.74763374 .00000254 00000-0 63144-4 0 07999 2 28892 098.1283 095.7618 0017867 017.7905 342.3926 14.59523921091815 CO-58 1 28895U 05043F 07200.75361234 .00000048 00000-0 19719-4 0 7793 2 28895 098.1297 096.9707 0018451 014.5729 345.5990 14.59569084 91843 NCUBE2 1 28897U 05043H 07200.68769889 .00000099 00000-0 30449-4 0 3060 2 28897 098.1281 096.8601 0018068 015.5112 344.6658 14.59732465 84119 NMARS 1 29662U 06055D 07126.39603970 .07031946 12599-4 11450-3 0 2632 2 29662 051.6121 302.3682 0004459 252.1654 110.7411 16.47981436 21652 FCAL 1 29667U 06055J 07200.53262073 .00010123 11124-4 45433-4 0 2157 2 29667 051.6344 284.5210 0014028 107.8943 252.3590 15.89324155 33144 FALCON 1 30776U 07006E 07199.87907360 .00000233 00000-0 20160-4 0 972 2 30776 035.4345 020.5385 0001767 344.9846 015.0818 15.02737211 19823 MAST 1 31126U 07012K 07200.68490284 .00000392 00000-0 10000-3 0 846 2 31126 098.0801 272.6655 0093793 285.1630 073.9199 14.53353375 13573 CAPE1 1 31130U 07012P 07199.19535945 .00000120 00000-0 39148-4 0 00718 2 31130 098.0818 271.0120 0101946 290.4709 068.5559 14.51867646013111 /EX
participants (1)
-
Ray Hoad